This demonstration page uses our WeatherBlox Daily Observations layout. Learn more.

Left ArrowRight Arrow

Hourly Observations for January 12, 2017

Temp ( °F °C ) Dew Point ( °F °C ) Humidity (%) Winds ( mph kmh ) Pressure ( in mb ) Visibility ( mi km ) Precip ( " mm )
12:15 am 00:15 Cloudy 48 9 46 8 94 94 S 9 15 30.18 1022 10 16 N/A
12:35 am 00:35 Partly Cloudy 48 9 48 9 100 100 SSW 10 17 30.18 1022 10 16 N/A
12:55 am 00:55 Clear 50 10 48 9 94 94 SSW 14 22 30.18 1022 10 16 N/A
1:15 am 01:15 Clear 50 10 48 9 94 94 SSW 14 22 30.18 1022 10 16 N/A
1:35 am 01:35 Mostly Cloudy 50 10 48 9 94 94 SSW 9 15 30.18 1022 10 16 N/A
1:55 am 01:55 Mostly Cloudy 50 10 48 9 94 94 S 9 15 30.18 1022 10 16 N/A
2:17 am 02:17 Partly Cloudy 52 11 50 10 94 94 S 12 19 30.15 1021 10 16 N/A
2:35 am 02:35 Partly Cloudy 52 11 50 10 94 94 S 12 19 30.15 1021 10 16 N/A
2:56 am 02:56 Mostly Cloudy 54 12 52 11 94 94 S 12 19 30.15 1021 10 16 N/A
3:15 am 03:15 Partly Cloudy 54 12 52 11 94 94 S 13 20 30.15 1021 10 16 N/A
3:35 am 03:35 Clear 54 12 52 11 94 94 SSW 9 15 30.15 1021 10 16 N/A
3:55 am 03:55 Clear 54 12 52 11 94 94 SSW 10 17 30.12 1020 10 16 N/A
4:16 am 04:16 Clear 54 12 52 11 94 94 SSW 8 13 30.12 1020 10 16 N/A
4:35 am 04:35 Clear 55 13 52 11 88 88 S 10 17 30.12 1020 10 16 N/A
4:56 am 04:56 Partly Cloudy with Light Rain 55 13 52 11 88 88 S 12 19 30.12 1020 10 16 N/A
5:15 am 05:15 Partly Cloudy 54 12 52 11 94 94 S 10 17 30.12 1020 10 16 N/A
5:35 am 05:35 Clear 54 12 52 11 94 94 S 12 19 30.12 1020 10 16 N/A
5:55 am 05:55 Partly Cloudy 54 12 52 11 94 94 S 12 19 30.12 1020 10 16 N/A
6:15 am 06:15 Clear 54 12 52 11 94 94 SSW 12 19 30.12 1020 10 16 N/A
6:36 am 06:36 Clear 54 12 52 11 94 94 SSW 12 19 30.12 1020 10 16 N/A
6:55 am 06:55 Clear 54 12 52 11 94 94 S 12 19 30.12 1020 10 16 N/A
7:15 am 07:15 Clear 54 12 52 11 94 94 S 14 22 30.12 1020 10 16 N/A
7:37 am 07:37 Sunny 54 12 52 11 94 94 SSW 13 20 30.12 1020 10 16 N/A
7:56 am 07:56 Sunny 54 12 52 11 94 94 SSW 12 19 30.12 1020 10 16 N/A
8:16 am 08:16 Sunny 54 12 52 11 94 94 S 15 24 30.12 1020 10 16 N/A
8:35 am 08:35 Sunny 54 12 52 11 94 94 SSW 14 22 30.15 1021 10 16 N/A
8:57 am 08:57 Sunny 54 12 52 11 94 94 S 13 20 30.15 1021 10 16 N/A
9:16 am 09:16 Sunny 55 13 54 12 94 94 SSW 14 22 30.15 1021 10 16 N/A
9:36 am 09:36 Sunny 55 13 54 12 94 94 SSW 12 19 30.15 1021 10 16 N/A
9:56 am 09:56 Sunny 55 13 54 12 94 94 SSW 13 20 30.15 1021 10 16 N/A
10:16 am 10:16 Sunny 57 14 54 12 88 88 S 14 22 30.15 1021 10 16 N/A
10:36 am 10:36 Sunny 57 14 54 12 88 88 S 13 20 30.12 1020 10 16 N/A
10:56 am 10:56 Sunny 59 15 54 12 82 82 SSW 13 20 30.12 1020 10 16 N/A
11:16 am 11:16 Sunny 61 16 55 13 83 83 S 16 26 30.12 1020 10 16 N/A
11:35 am 11:35 Sunny 63 17 55 13 77 77 SSW 12 19 30.09 1019 10 16 N/A
11:55 am 11:55 Sunny 63 17 55 13 77 77 SSW 15 24 30.09 1019 10 16 N/A
12:16 pm 12:16 Sunny 64 18 55 13 73 73 S 15 24 30.06 1018 10 16 N/A
12:36 pm 12:36 Sunny 66 19 55 13 68 68 S 17 28 30.06 1018 10 16 N/A
12:56 pm 12:56 Sunny 66 19 55 13 68 68 S 17 28 30.06 1018 10 16 N/A
1:15 pm 13:15 Sunny 68 20 55 13 64 64 SSW 15 24 30.06 1018 10 16 N/A
1:36 pm 13:36 Sunny 70 21 55 13 60 60 SSW 17 28 30.06 1018 10 16 N/A
1:55 pm 13:55 Sunny 70 21 55 13 60 60 SSW 14 22 30.03 1017 10 16 N/A
2:15 pm 14:15 Sunny 72 22 55 13 57 57 SSW 15 24 30.03 1017 10 16 N/A
2:36 pm 14:36 Sunny 72 22 55 13 57 57 S 22 35 30.03 1017 10 16 N/A
2:56 pm 14:56 Sunny 70 21 55 13 60 60 SSW 23 37 30.03 1017 10 16 N/A
3:16 pm 15:16 Sunny 70 21 55 13 60 60 SSW 18 30 30.03 1017 10 16 N/A
3:36 pm 15:36 Sunny 70 21 55 13 60 60 SSW 16 26 30.03 1017 10 16 N/A
3:56 pm 15:56 Sunny 70 21 55 13 60 60 S 17 28 30.03 1017 10 16 N/A
4:16 pm 16:16 Sunny 70 21 55 13 60 60 SSW 15 24 30.03 1017 10 16 N/A
4:36 pm 16:36 Sunny 70 21 55 13 60 60 SSW 16 26 30.03 1017 10 16 N/A
4:56 pm 16:56 Sunny 70 21 55 13 60 60 SSW 13 20 30.06 1018 10 16 N/A
5:16 pm 17:16 Clear 68 20 55 13 64 64 S 15 24 30.06 1018 10 16 N/A
5:36 pm 17:36 Clear 68 20 55 13 64 64 SSW 15 24 30.06 1018 10 16 N/A
5:55 pm 17:55 Clear 66 19 55 13 68 68 SSW 15 24 30.06 1018 10 16 N/A
6:16 pm 18:16 Clear 66 19 55 13 68 68 SSW 15 24 30.06 1018 10 16 N/A
6:36 pm 18:36 Clear 66 19 55 13 68 68 SSW 16 26 30.09 1019 10 16 N/A
6:56 pm 18:56 Partly Cloudy 66 19 55 13 68 68 SSW 15 24 30.09 1019 10 16 N/A
7:16 pm 19:16 Mostly Cloudy 64 18 55 13 73 73 SSW 13 20 30.12 1020 10 16 N/A
7:36 pm 19:36 Mostly Cloudy 64 18 55 13 73 73 SSW 13 20 30.12 1020 10 16 N/A
7:56 pm 19:56 Mostly Cloudy 64 18 55 13 73 73 SSW 14 22 30.12 1020 10 16 N/A
8:16 pm 20:16 Cloudy 64 18 54 12 68 68 S 14 22 30.12 1020 10 16 N/A
8:56 pm 20:56 Cloudy 64 18 55 13 73 73 SSW 12 19 30.12 1020 10 16 N/A
9:15 pm 21:15 Cloudy 64 18 55 13 73 73 SW 9 15 30.12 1020 10 16 N/A
9:35 pm 21:35 Cloudy 64 18 54 12 68 68 SW 6 9 30.15 1021 10 16 N/A
10:15 pm 22:15 Cloudy 64 18 54 12 68 68 SW 3 6 30.15 1021 10 16 N/A
10:35 pm 22:35 Cloudy 64 18 54 12 68 68 W 6 9 30.15 1021 10 16 N/A
11:36 pm 23:36 Cloudy 63 17 54 12 73 73 WNW 7 11 30.21 1023 10 16 N/A
11:56 pm 23:56 Cloudy with Drizzle 61 16 55 13 83 83 WSW 3 6 30.21 1023 10 16 N/A

Powered by AerisWeather